Location: Altmatt
(47.1333°N, 8.7000°E)
Time: 01:34:30
(UTC+00:00)

Cosmos 1707 Rocket - Pass Details

Date: 13 July 2020
Orbit: 605 x 632 km, 82.5° (Epoch: 04 August)

Event Time Altitude Azimuth Distance (km) Brightness Sun altitude
Rises 23:24:45 0° 351° (N) 2,928 8.5 -21.2°
Reaches altitude 10° 23:27:00 10° 352° (N) 2,012 7.3 -21.2°
Maximum altitude 23:31:29 85° 81° (E) 633 3.5 -21.2°
Enters shadow 23:32:17 59° 162° (SSE) 721 3.5 -21.2°
